TimeEST,TemperatureF,Dew PointF,Humidity,Sea Level PressureIn,VisibilityMPH,Wind Direction,Wind SpeedMPH,Gust SpeedMPH,PrecipitationIn,Events,Conditions,WindDirDegrees,DateUTC
12:15 AM,26.6,21.2,80,29.72,10.0,North,5.8,-,N/A,,Clear,360,2013-02-17 05:15:00
12:35 AM,26.6,21.2,80,29.70,10.0,North,9.2,18.4,N/A,,Scattered Clouds,360,2013-02-17 05:35:00
12:55 AM,26.6,19.4,74,29.68,10.0,North,11.5,18.4,N/A,,Mostly Cloudy,360,2013-02-17 05:55:00
1:15 AM,24.8,19.4,80,29.67,10.0,North,6.9,19.6,N/A,,Overcast,360,2013-02-17 06:15:00
1:35 AM,24.8,19.4,80,29.65,10.0,North,11.5,18.4,N/A,,Overcast,360,2013-02-17 06:35:00
1:55 AM,24.8,19.4,80,29.65,10.0,North,8.1,17.3,N/A,,Overcast,360,2013-02-17 06:55:00
2:15 AM,24.8,17.6,74,29.65,10.0,North,8.1,21.9,N/A,,Overcast,360,2013-02-17 07:15:00
2:35 AM,24.8,15.8,69,29.63,10.0,NNW,8.1,16.1,N/A,,Mostly Cloudy,340,2013-02-17 07:35:00
2:55 AM,24.8,15.8,69,29.60,10.0,North,10.4,20.7,N/A,,Overcast,360,2013-02-17 07:55:00
3:15 AM,24.8,15.8,69,29.60,10.0,North,12.7,20.7,N/A,,Scattered Clouds,360,2013-02-17 08:15:00
3:35 AM,24.8,17.6,74,29.59,7.0,North,10.4,16.1,N/A,,Partly Cloudy,360,2013-02-17 08:35:00
3:55 AM,23.0,17.6,80,29.56,2.0,NNW,12.7,20.7,N/A,,Overcast,340,2013-02-17 08:55:00
4:15 AM,23.0,17.6,80,29.56,3.0,North,9.2,21.9,N/A,,Overcast,360,2013-02-17 09:15:00
4:36 AM,23.0,17.6,80,29.54,4.0,NNW,10.4,21.9,N/A,,Overcast,340,2013-02-17 09:36:00
4:55 AM,23.0,17.6,80,29.53,10.0,North,9.2,19.6,N/A,,Partly Cloudy,360,2013-02-17 09:55:00
5:15 AM,23.0,15.8,74,29.49,10.0,NNW,11.5,24.2,N/A,,Clear,340,2013-02-17 10:15:00
5:35 AM,23.0,15.8,74,29.48,10.0,North,10.4,25.3,N/A,,Scattered Clouds,360,2013-02-17 10:35:00
5:55 AM,23.0,17.6,80,29.47,5.0,NNW,10.4,19.6,N/A,,Mostly Cloudy,340,2013-02-17 10:55:00
6:15 AM,23.0,15.8,74,29.45,10.0,North,13.8,21.9,N/A,,Overcast,360,2013-02-17 11:15:00
6:35 AM,23.0,15.8,74,29.43,10.0,North,10.4,26.5,N/A,,Scattered Clouds,360,2013-02-17 11:35:00
7:15 AM,23.0,17.6,80,29.38,10.0,North,16.1,26.5,N/A,,Overcast,360,2013-02-17 12:15:00
7:55 AM,24.8,17.6,74,29.36,10.0,North,11.5,23.0,N/A,,Overcast,360,2013-02-17 12:55:00
8:15 AM,24.8,17.6,74,29.33,10.0,NNW,15.0,26.5,N/A,,Overcast,340,2013-02-17 13:15:00
8:35 AM,24.8,15.8,69,29.31,10.0,North,16.1,28.8,N/A,,Overcast,360,2013-02-17 13:35:00
8:55 AM,24.8,15.8,69,29.29,8.0,North,13.8,24.2,N/A,,Overcast,360,2013-02-17 13:55:00
9:15 AM,24.8,17.6,74,29.27,2.5,NNW,10.4,23.0,N/A,,Overcast,340,2013-02-17 14:15:00
9:35 AM,24.8,17.6,74,29.26,3.0,North,11.5,24.2,N/A,,Overcast,360,2013-02-17 14:35:00
9:55 AM,24.8,17.6,74,29.23,3.0,NNW,11.5,20.7,N/A,,Overcast,340,2013-02-17 14:55:00
10:15 AM,23.0,17.6,80,29.22,2.5,NNW,16.1,26.5,N/A,,Overcast,330,2013-02-17 15:15:00
10:35 AM,24.8,17.6,74,29.20,5.0,NNW,9.2,27.6,N/A,,Overcast,340,2013-02-17 15:35:00
10:55 AM,24.8,17.6,74,29.18,5.0,NW,17.3,26.5,N/A,,Overcast,320,2013-02-17 15:55:00
11:15 AM,24.8,17.6,74,29.16,8.0,NW,15.0,25.3,N/A,,Overcast,320,2013-02-17 16:15:00
11:35 AM,24.8,17.6,74,29.13,6.0,NW,17.3,26.5,N/A,,Overcast,320,2013-02-17 16:35:00
11:55 AM,24.8,17.6,74,29.11,7.0,NW,13.8,25.3,N/A,,Overcast,310,2013-02-17 16:55:00
12:15 PM,24.8,15.8,69,29.09,6.0,NNW,12.7,29.9,N/A,,Mostly Cloudy,330,2013-02-17 17:15:00
12:35 PM,24.8,15.8,69,29.07,4.0,NW,15.0,28.8,N/A,,Mostly Cloudy,310,2013-02-17 17:35:00
12:55 PM,24.8,17.6,74,29.05,4.0,NW,18.4,33.4,N/A,,Mostly Cloudy,310,2013-02-17 17:55:00
1:15 PM,23.0,15.8,74,29.06,4.0,NW,19.6,33.4,N/A,,Scattered Clouds,310,2013-02-17 18:15:00
1:55 PM,23.0,15.8,74,29.06,5.0,NW,12.7,31.1,N/A,,Mostly Cloudy,310,2013-02-17 18:55:00
2:15 PM,23.0,15.8,74,29.05,4.0,NW,15.0,34.5,N/A,,Partly Cloudy,310,2013-02-17 19:15:00
2:35 PM,21.2,15.8,80,29.05,1.8,NW,18.4,36.8,N/A,,Scattered Clouds,310,2013-02-17 19:35:00
2:55 PM,23.0,14.0,68,29.05,3.0,NW,20.7,35.7,N/A,,Clear,310,2013-02-17 19:55:00
3:15 PM,23.0,14.0,68,29.06,2.0,NW,16.1,35.7,N/A,,Clear,310,2013-02-17 20:15:00
3:35 PM,21.2,15.8,80,29.07,4.0,NW,17.3,32.2,N/A,,Clear,310,2013-02-17 20:35:00
3:55 PM,21.2,14.0,74,29.07,3.0,WNW,18.4,47.2,N/A,,Clear,300,2013-02-17 20:55:00
4:15 PM,21.2,14.0,74,29.09,2.0,WNW,16.1,42.6,N/A,,Clear,300,2013-02-17 21:15:00
4:35 PM,21.2,15.8,80,29.10,0.8,WNW,17.3,34.5,N/A,,Unknown,300,2013-02-17 21:35:00
4:55 PM,21.2,15.8,80,29.11,1.0,WNW,16.1,29.9,N/A,,Clear,300,2013-02-17 21:55:00
5:15 PM,21.2,15.8,80,29.12,1.5,WNW,20.7,35.7,N/A,,Clear,300,2013-02-17 22:15:00
5:35 PM,21.2,14.0,74,29.14,2.5,WNW,20.7,33.4,N/A,,Clear,300,2013-02-17 22:35:00
5:55 PM,21.2,12.2,68,29.15,3.0,WNW,17.3,35.7,N/A,,Clear,300,2013-02-17 22:55:00
6:15 PM,21.2,12.2,68,29.16,5.0,WNW,21.9,33.4,N/A,,Clear,290,2013-02-17 23:15:00
6:35 PM,19.4,10.4,68,29.17,6.0,West,23.0,29.9,N/A,,Clear,280,2013-02-17 23:35:00
6:55 PM,19.4,10.4,68,29.18,4.0,WNW,20.7,35.7,N/A,,Clear,290,2013-02-17 23:55:00
7:15 PM,19.4,10.4,68,29.18,3.0,WNW,24.2,33.4,N/A,,Partly Cloudy,290,2013-02-18 00:15:00
7:35 PM,19.4,10.4,68,29.19,3.0,WNW,31.1,39.1,N/A,,Partly Cloudy,290,2013-02-18 00:35:00
7:55 PM,19.4,10.4,68,29.19,5.0,WNW,28.8,41.4,N/A,,Clear,290,2013-02-18 00:55:00
8:15 PM,19.4,10.4,68,29.21,5.0,WNW,25.3,39.1,N/A,,Clear,290,2013-02-18 01:15:00
8:35 PM,19.4,10.4,68,29.21,5.0,WNW,28.8,39.1,N/A,,Clear,290,2013-02-18 01:35:00
8:55 PM,19.4,8.6,63,29.22,7.0,WNW,27.6,39.1,N/A,,Clear,290,2013-02-18 01:55:00
9:15 PM,19.4,8.6,63,29.24,10.0,WNW,20.7,41.4,N/A,,Clear,290,2013-02-18 02:15:00
9:35 PM,19.4,8.6,63,29.25,10.0,WNW,25.3,34.5,N/A,,Clear,290,2013-02-18 02:35:00
9:55 PM,21.2,6.8,54,29.25,5.0,WNW,26.5,43.7,N/A,,Clear,290,2013-02-18 02:55:00
10:15 PM,21.2,6.8,54,29.27,8.0,WNW,20.7,38.0,N/A,,Clear,300,2013-02-18 03:15:00
10:35 PM,21.2,6.8,54,29.28,9.0,WNW,24.2,39.1,N/A,,Clear,290,2013-02-18 03:35:00
10:55 PM,19.4,6.8,58,29.29,10.0,WNW,19.6,35.7,N/A,,Clear,290,2013-02-18 03:55:00
11:15 PM,19.4,6.8,58,29.30,10.0,WNW,27.6,35.7,N/A,,Clear,290,2013-02-18 04:15:00
11:35 PM,19.4,6.8,58,29.31,10.0,West,20.7,35.7,N/A,,Clear,280,2013-02-18 04:35:00
11:55 PM,19.4,6.8,58,29.33,9.0,WNW,17.3,33.4,N/A,,Clear,290,2013-02-18 04:55:00